Location: Metacom Observatory
(41.7315°N, 71.2698°W)
Time: 21:02:54
(UTC-05:00)

Hubble Space Telescope - Visible Passes

Search period start: 23 January 2018 00:00
Search period end: 02 February 2018 00:00
Orbit: 537 x 541 km, 28.5° (Epoch: 23 January)

Date Brightness Start Highest point End Pass type
(mag) Time Alt. Az. Time Alt. Az. Time Alt. Az.
24 Jan 3.3 18:48:42 10° S 18:49:19 10° S 18:49:22 10° SSE visible
25 Jan 3.2 18:37:37 10° S 18:38:55 11° S 18:39:46 11° SSE visible
26 Jan 3.2 18:26:53 10° SSW 18:28:31 12° S 18:30:10 10° SSE visible
27 Jan 3.2 18:16:19 10° SSW 18:18:07 13° S 18:19:56 10° SSE visible
28 Jan 3.3 18:05:51 10° SSW 18:07:44 13° S 18:09:37 10° SSE visible
29 Jan 3.3 17:55:28 10° SSW 17:57:20 13° S 17:59:12 10° SSE visible
30 Jan 3.4 17:45:11 10° SSW 17:46:56 12° S 17:48:42 10° SSE visible
31 Jan 3.4 17:35:00 10° SSW 17:36:32 12° S 17:38:04 10° SSE visible
